SCP
0 0 0 0 0 0 0 0 0 0 0 0 0 0 0 0 0 0 0 0 0 0 0 0 0 0 0 0 0 0 0 0 0 0 0 0 0 0 0 0 0 0 0 0 0 0 0
0 0 0 0 0 0 0 0 0 0 0 0 0 0 0 0 0 0 0 0 0 0 0 0 0 0 0 0 0 0 0 0 0 0 0 0 0 0 0 0 0 0 0 0 0 0 0
0 0 0 0 0 0 0 0 0 0 0 0 0 0 0 0 0 0 0 0 0 0 0 0 0 0 0 0 0 0 0 0 0 0 0 0 0 0 0 0 0 0 0 0 0 0 0
0 0 0 0 0 0 0 0 0 0 0 0 0 0 0 0 0 0 0 0 0 0 0 0 0 0 0 0 0 0 0 0 0 0 0 0 0 0 0 0 0 0 0 0 0 0 0
0 0 0 0 0 0 0 0 0 0 0 0 0 0 0 0 0 0 0 0 0 0 0 0 0 0 0 0 0 0 0 0 0 0 0 0 0 0 0 0 0 0 0 0 0 0 0
0 0 0 0 0 0 0 0 0 0 0 0 0 0 0 0 0 0 0 0 0 0 0 0 0 0 0 0 0 0 0 0 0 0 0 0 0 0 0 0 0 0 0 0 0 0 0
0 0 0 0 0 0 0 0 0 0 0 0 0 0 0 0 0 0 0 0 0 0 0 0 0 0 0 0 0 0 0 0 0 0 0 0 0 0 0 0 0 0 0 0 0 0 0
0 0 0 0 0 0 0 0 0 0 0 0 0 0 0 0 0 0 0 0 0 0 0 0 0 0 0 0 0 0 0 0 0 0 0 0 0 0 0 0 0 0 0 0 0 0 0
0 0 0 0 0 0 0 0 0 0 0 0 0 0 0 0 0 0 0 0 0 0 0 0 0 0 0 0 0 0 0 0 0 0 0 0 0 0 0 0 0 0 0 0 0 0 0
0 0 0 0 0 0 0 0 0 0 0 0 0 0 0 0 0 0 0 0 0 0 0 0 0 0 0 0 0 0 0 0 0 0 0 0 0 0 0 0 0 0 0 0 0 0 0
0 0 0 0 0 0 0 0 0 0 0 0 0 0 0 0 0 0 0 0 0 0 0 0 0 0 0 0 0 0 0 0 0 0 0 0 0 0 0 0 0 0 0 0 0 0 0
0 0 0 0 0 0 0 0 0 0 0 0 0 0 0 0 0 0 0 0 0 0 0 0 0 0 0 0 0 0 0 0 0 0 0 0 0 0 0 0 0 0 0 0 0 0 0
0 0 0 0 0 0 0 0 0 0 0 0 0 0 0 0 0 0 0 0 0 0 0 0 0 0 0 0 0 0 0 0 0 0 0 0 0 0 0 0 0 0 0 0 0 0 0
0 0 0 0 0 0 0 0 0 0 0 0 0 0 0 0 0 0 0 0 0 0 0 0 0 0 0 0 0 0 0 0 0 0 0 0 0 0 0 0 0 0 0 0 0 0 0
0 0 0 0 0 0 0 0 0 0 0 0 0 0 0 0 0 0 0 0 0 0 0 0 0 0 0 0 0 0 0 0 0 0 0 0 0 0 0 0 0 0 0 0 0 0 0
0 0 0 0 0 0 0 0 0 0 0 0 0 0 0 0 0 0 0 0 0 0 0 0 0 0 0 0 0 0 0 0 0 0 0 0 0 0 0 0 0 0 0 0 0 0 0
0 0 0 0 0 0 0 0 0 0 0 0 0 0 0 0 0 0 0 0 0 0 0 0 0 0 0 0 0 0 0 0 0 0 0 0 0 0 0 0 0 0 0 0 0 0 0
0 0 0 0 0 0 0 0 0 0 0 0 0 0 0 0 0 0 0 0 0 0 0 0 0 0 0 0 0 0 0 0 0 0 0 0 0 0 0 0 0 0 0 0 0 0 0
0 0 0 0 0 0 0 0 0 0 0 0 0 0 0 0 0 0 0 0 0 0 0 0 0 0 0 0 0 0 0 0 0 0 0 0 0 0 0 0 0 0 0 0 0 0 0
0 0 0 0 0 0 0 0 0 0 0 0 0 0 0 0 0 0 0 0 0 0 0 0 0 0 0 0 0 0 0 0 0 0 0 0 0 0 0 0 0 0 0 0 0 0 0
0 0 0 0 0 0 0 0 0 0 0 0 0 0 0 0 0 0 0 0 0 0 0 0 0 0 0 0 0 0 0 0 0 0 0 0 0 0 0 0 0 0 0 0 0 0 0
0 0 0 0 0 0 0 0 0 0 0 0 0 0 0 0 0 0 0 0 0 0 0 0 0 0 0 0 0 0 0 0 0 0 0 0 0 0 0 0 0 0 0 0 0 0 0
0 0 0 0 0 0 0 0 0 0 0 0 0 0 0 0 0 0 0 0 0 0 0 0 0 0 0 0 0 0 0 0 0 0 0 0 0 0 0 0 0 0 0 0 0 0 0
0 0 0 0 0 0 0 0 0 0 0 0 0 0 0 0 0 0 0 0 0 0 0 0 0 0 0 0 0 0 0 0 0 0 0 0 0 0 0 0 0 0 0 0 0 0 0
0 0 0 0 0 -0 0 0 -0 -0 0 0 0 0 0 0 0 0 0 0 0 0 0 0 0 0 0 0 0 0 0 0 0 0 0 0 0 0 0 0 0 0 0 0 0 0 0
0 0 0 0 0 0 0 0 0 -0 -0 0 0 0 0 0 0 0 0 0 0 0 0 0 0 0 0 0 0 0 0 0 0 0 0 0 0 0 0 0 0 0 0 0 0 0 0
0 0 0 0 0 0 -0 0 0 0 -0 0 0 0 0 0 0 0 0 0 0 0 0 0 0 0 0 0 0 0 0 0 0 0 0 0 0 0 0 0 0 0 0 0 0 0 0
0 0 0 0 0 0 0 0 0 0 0 0 0 0 0 0 0 0 0 0 0 0 0 0 0 0 0 0 0 0 0 0 0 0 0 0 0 0 0 0 0 0 0 0 0 0 0
0 0 0 0 0 0 0 0 0 0 0 0 0 0 0 0 0 0 0 0 0 0 0 0 0 0 0 0 0 0 0 0 0 0 0 0 0 0 0 0 0 0 0 0 0 0 0
Wind_Speed_500mb
39 41 47 48 48 49 49 47 43 40 36 32 29 26 24 22 21 21 21 20 19 19 18 16 17 16 15 8 10 11 8 10 16 16 13 8 4 6 5 7 6 5 6 6 8 12 11
47 44 45 51 52 52 53 52 51 47 43 39 35 32 29 27 27 25 25 24 23 21 21 20 20 18 15 12 14 15 15 18 19 19 15 10 5 8 10 5 5 3 5 9 12 11 12
52 51 48 49 54 56 55 56 55 54 50 45 41 38 35 32 31 31 29 27 25 24 23 23 22 20 21 23 17 17 17 19 21 21 18 14 10 10 14 8 3 1 8 14 14 9 10
54 57 56 53 52 55 60 60 59 58 55 51 48 44 40 37 35 34 32 30 28 26 25 23 21 18 14 21 23 28 24 21 22 21 18 15 14 13 6 15 5 3 4 7 6 7 4
62 59 60 58 57 55 55 63 64 62 60 57 53 50 46 41 39 37 34 31 29 28 26 22 19 14 12 19 27 29 25 23 22 20 18 19 19 8 10 8 6 4 11 14 7 3 3
71 69 62 62 64 61 59 57 65 67 64 62 57 54 51 45 42 40 34 31 29 29 28 23 23 9 26 15 20 25 28 25 20 26 21 14 6 7 7 15 16 11 11 10 12 4 6
65 63 75 71 65 68 63 61 60 67 67 63 61 57 52 48 44 41 34 25 21 16 31 23 13 10 6 23 21 23 30 32 24 16 15 7 14 24 35 31 11 2 9 21 5 3 7
49 58 65 74 77 75 67 67 64 64 67 66 62 61 53 48 45 42 36 21 18 7 14 29 43 37 18 25 16 28 36 22 17 16 16 9 26 26 5 15 15 10 18 29 12 6 8
55 54 54 64 80 82 79 81 70 66 66 67 65 61 55 48 41 42 41 36 24 11 11 17 42 43 39 40 20 40 48 23 12 17 30 23 4 13 16 13 19 22 28 23 17 1 10
48 60 62 66 70 80 88 79 80 67 63 64 64 61 53 41 33 42 46 35 22 5 11 12 16 20 34 34 13 32 52 18 10 27 19 16 7 12 16 16 24 28 24 20 16 7 17
47 48 58 55 56 70 73 84 86 74 60 57 62 61 47 52 26 40 41 31 31 11 16 8 10 13 27 23 29 19 43 18 16 16 14 11 17 20 22 19 21 11 10 18 12 18 11
41 46 51 57 43 62 86 91 83 87 75 64 56 57 46 54 47 37 28 41 41 9 26 10 10 13 18 7 7 14 18 9 10 9 4 9 1 9 8 6 14 24 13 10 6 3 15
38 38 43 52 53 46 58 89 94 95 85 78 76 81 66 68 69 46 41 56 12 27 8 15 12 16 15 12 9 12 21 21 18 15 25 7 19 8 9 11 5 11 20 7 8 10 13
42 37 36 41 48 50 50 52 95 88 81 79 75 78 78 83 72 58 63 16 28 32 41 9 12 16 21 19 8 12 20 24 27 8 8 18 14 30 25 27 18 33 23 10 13 11 3
44 34 38 40 43 51 63 63 48 87 84 79 72 78 91 90 83 74 62 31 44 36 34 26 14 13 20 13 12 16 25 20 28 34 22 17 12 5 7 6 20 15 21 3 7 3 5
48 46 40 41 46 45 56 60 66 59 61 88 90 93 99 92 90 94 31 57 34 17 24 25 41 27 35 28 26 30 31 17 15 40 14 12 10 4 5 7 1 10 21 9 7 10 13
36 47 50 45 42 49 45 55 61 62 60 102 96 48 82 94 95 59 28 53 48 25 24 33 40 27 21 24 33 23 26 11 25 24 40 12 9 7 10 23 35 12 13 7 5 8 8
36 38 44 48 45 40 44 50 55 67 60 70 98 24 59 104 43 30 39 57 56 60 33 27 12 39 29 29 30 33 38 25 44 38 31 20 5 12 23 2 5 22 23 25 14 13 9
40 35 39 40 40 41 41 39 58 56 65 47 77 67 66 116 35 38 55 55 56 41 59 35 27 20 21 29 20 36 27 22 41 37 35 24 10 11 7 7 5 17 18 30 23 4 21
42 39 42 34 38 38 43 38 44 52 61 53 20 8 35 95 105 56 51 62 57 77 39 57 32 36 20 26 23 16 26 14 44 38 37 48 18 31 37 16 21 24 29 32 36 20 25
42 40 48 35 32 36 40 28 25 51 54 51 18 5 12 12 37 57 55 38 58 49 67 46 25 56 50 37 39 48 25 11 11 19 21 26 31 36 44 24 19 19 39 43 50 54 31
44 42 40 50 23 31 31 37 28 22 37 43 12 2 9 3 15 52 54 58 67 60 29 55 52 47 39 57 61 45 45 34 25 17 15 10 28 31 31 27 25 19 35 50 53 48 46
36 43 39 39 41 20 29 28 28 23 15 5 27 30 9 3 3 3 37 57 62 47 55 75 65 49 48 70 66 55 39 44 26 34 36 25 22 15 31 18 10 19 46 41 35 35 39
44 36 42 36 40 37 23 31 24 23 24 26 17 19 13 6 10 11 5 4 8 4 30 14 41 47 61 38 38 6 14 21 16 3 15 32 38 16 14 11 21 14 1 37 42 33 32
41 53 39 41 36 47 25 30 21 19 21 16 20 9 8 5 9 9 15 9 4 8 6 5 4 12 41 32 8 8 3 5 2 7 4 2 26 10 11 20 7 3 7 17 26 29 19
49 42 52 41 42 38 48 28 25 18 17 15 19 13 10 2 9 9 6 6 7 7 6 4 8 50 18 5 6 14 12 10 12 7 5 5 10 17 8 13 21 4 9 11 10 11 18
55 49 43 49 42 39 36 34 34 20 17 20 19 20 10 6 9 15 7 9 12 6 6 8 10 1 3 4 5 6 8 2 16 23 14 9 4 25 12 11 9 7 12 19 14 5 14
45 49 50 41 44 43 38 36 37 35 25 24 21 25 21 9 10 20 12 13 15 12 7 13 11 3 3 8 6 6 6 9 5 3 9 17 18 9 7 9 18 17 12 17 7 15 31
47 49 49 47 48 42 41 39 39 46 44 36 29 28 24 10 5 19 25 18 11 24 20 26 3 6 11 6 3 6 5 4 8 9 2 7 6 8 12 4 4 37 6 15 29 34 34
Wind_Direction_500mb
255 255 251 245 239 243 244 243 240 239 238 242 246 251 258 259 260 263 267 270 274 281 286 291 297 303 307 283 247 224 208 187 177 172 177 183 186 147 184 156 160 209 170 200 201 209 228
256 255 255 251 245 239 243 244 244 242 241 241 245 248 251 255 257 258 263 269 274 278 282 287 290 294 290 259 249 233 224 213 209 205 209 212 202 169 122 167 228 139 217 253 251 235 212
256 257 254 254 251 247 239 243 244 244 243 242 245 247 248 250 252 255 258 264 268 272 275 281 285 288 280 262 249 230 226 218 214 212 215 215 198 168 146 147 152 18 289 292 232 214 217
263 259 257 255 255 249 249 241 242 243 242 243 243 246 249 248 248 251 257 262 266 268 273 277 281 282 260 257 243 233 226 217 210 210 209 199 177 159 124 133 79 237 252 253 126 165 159
258 261 258 258 255 255 249 249 243 240 242 241 242 245 246 246 247 248 253 261 264 266 271 274 274 254 254 245 234 228 213 213 203 193 185 178 166 126 138 192 214 213 259 229 285 192 144
254 260 260 256 256 255 255 252 248 242 238 241 240 242 245 244 245 247 250 256 261 268 267 268 249 246 237 221 216 210 201 189 172 169 144 157 132 181 179 198 236 206 222 231 241 143 223
261 254 259 258 256 256 256 258 253 245 240 236 240 238 239 242 242 245 248 253 266 262 233 214 219 202 180 201 194 192 187 177 161 163 181 151 206 215 216 218 259 210 235 259 213 123 238
258 259 257 259 257 256 256 258 258 248 242 237 233 238 234 236 239 240 239 217 219 224 290 244 239 231 223 192 182 190 180 174 173 188 138 161 230 234 145 195 218 228 251 259 273 218 235
260 255 259 261 258 253 250 251 253 252 241 238 234 232 233 230 231 233 233 227 229 249 267 253 232 231 220 212 213 193 183 183 182 169 194 211 161 171 172 171 202 227 233 243 261 201 218
267 261 258 262 263 259 248 249 246 248 240 236 232 231 227 221 219 226 233 221 207 193 264 234 211 218 202 194 213 196 185 177 182 208 179 235 164 155 184 210 205 241 223 232 232 244 262
274 266 255 264 266 256 250 243 246 239 241 235 231 227 220 211 210 212 229 200 183 156 270 131 151 176 166 177 142 179 180 194 182 169 181 200 178 189 214 224 186 264 145 203 213 234 265
289 273 263 255 264 258 249 249 249 234 235 231 231 230 216 210 208 219 206 171 155 193 239 165 132 160 152 157 123 116 169 158 141 130 276 273 71 194 205 96 193 136 101 82 84 201 252
296 294 279 263 256 260 249 251 256 233 230 228 228 233 224 211 206 201 176 153 178 224 131 179 174 173 166 151 144 165 172 180 173 183 223 197 220 175 160 116 96 182 165 183 217 209 251
273 286 295 286 262 249 246 248 245 233 235 231 229 219 212 208 208 190 176 186 218 224 208 109 120 139 182 154 185 157 159 192 218 200 146 198 235 191 187 214 181 190 196 206 213 204 222
262 271 282 291 286 256 243 243 242 243 234 228 220 216 212 206 202 194 181 200 221 209 189 149 133 166 196 205 172 167 197 210 197 193 205 195 247 195 196 148 167 180 212 169 110 81 263
263 266 270 282 297 278 250 240 240 241 251 223 216 215 212 206 203 194 202 214 223 193 159 177 205 189 186 185 176 193 181 192 201 194 200 199 235 218 143 140 140 207 145 172 214 218 231
275 271 267 275 286 298 255 246 237 233 245 233 220 209 208 209 205 201 208 224 217 210 171 181 212 200 207 181 196 195 200 167 201 192 194 155 237 140 147 208 187 173 190 205 216 222 239
271 277 277 267 281 284 257 246 245 231 230 224 210 216 206 201 196 207 211 214 218 212 220 228 222 210 192 181 192 208 203 205 189 151 177 196 161 195 207 120 303 234 215 184 200 191 237
287 274 267 272 276 272 284 250 240 238 229 248 219 212 203 190 201 204 222 222 222 211 213 219 213 202 195 193 213 205 203 204 170 169 169 171 198 228 221 214 182 218 204 216 235 57 210
279 277 255 265 263 277 271 273 236 234 240 241 224 213 202 193 204 206 206 215 217 216 220 212 229 229 209 211 224 206 209 188 193 199 195 167 175 208 225 217 161 205 205 202 202 220 218
276 283 251 266 258 265 266 283 262 232 239 240 241 248 191 205 202 206 208 209 216 212 216 201 218 217 214 229 225 233 199 155 196 223 188 188 226 217 235 243 203 208 196 195 208 221 214
262 272 268 252 280 251 261 273 279 273 211 227 184 236 258 205 225 208 203 211 212 212 177 212 222 208 212 217 212 220 221 214 210 176 191 220 228 217 241 229 216 228 211 202 211 219 233
265 256 267 274 256 267 252 259 273 286 268 203 193 198 240 246 194 271 216 221 216 209 217 218 217 222 215 224 229 246 227 222 209 186 188 185 203 183 232 197 162 250 214 198 206 214 213
258 267 256 267 275 244 255 253 246 272 261 236 202 182 180 227 207 221 223 340 164 159 234 223 221 216 222 219 208 179 82 76 161 104 207 194 205 203 227 132 218 260 145 206 209 212 217
272 251 266 256 261 263 257 242 234 239 254 254 218 223 188 228 199 179 205 187 151 329 75 141 143 189 163 135 110 125 39 98 56 37 70 136 185 182 183 210 325 343 203 165 179 228 199
270 277 253 260 253 259 254 241 224 211 214 243 256 239 227 218 217 132 143 180 186 140 130 59 149 155 138 112 151 175 182 148 189 162 8 130 187 205 151 209 220 213 175 165 144 243 196
256 265 271 249 249 250 253 257 228 230 209 202 216 223 214 236 213 161 171 170 149 133 113 132 144 140 99 127 151 167 174 142 168 172 160 147 168 211 183 221 271 204 162 159 161 230 155
258 255 261 265 246 243 242 230 230 226 220 204 201 195 206 212 222 203 175 158 143 154 157 143 110 152 153 189 170 159 150 190 117 121 170 171 168 184 157 210 248 146 108 176 155 126 158
262 254 253 260 242 240 243 234 226 224 228 209 199 190 186 191 249 223 211 182 168 169 131 163 20 156 164 138 142 118 131 168 140 178 215 206 192 176 206 197 48 172 82 173 147 165 182
Wind_Speed_850mb
39 41 47 48 48 49 49 47 43 40 36 32 29 26 24 22 21 21 21 20 19 19 18 16 17 16 15 8 10 11 8 10 16 16 13 8 4 6 5 7 6 5 6 6 8 12 11
47 44 45 51 52 52 53 52 51 47 43 39 35 32 29 27 27 25 25 24 23 21 21 20 20 18 15 12 14 15 15 18 19 19 15 10 5 8 10 5 5 3 5 9 12 11 12
52 51 48 49 54 56 55 56 55 54 50 45 41 38 35 32 31 31 29 27 25 24 23 23 22 20 21 23 17 17 17 19 21 21 18 14 10 10 14 8 3 1 8 14 14 9 10
54 57 56 53 52 55 60 60 59 58 55 51 48 44 40 37 35 34 32 30 28 26 25 23 21 18 14 21 23 28 24 21 22 21 18 15 14 13 6 15 5 3 4 7 6 7 4
62 59 60 58 57 55 55 63 64 62 60 57 53 50 46 41 39 37 34 31 29 28 26 22 19 14 12 19 27 29 25 23 22 20 18 19 19 8 10 8 6 4 11 14 7 3 3
71 69 62 62 64 61 59 57 65 67 64 62 57 54 51 45 42 40 34 31 29 29 28 23 23 9 26 15 20 25 28 25 20 26 21 14 6 7 7 15 16 11 11 10 12 4 6
65 63 75 71 65 68 63 61 60 67 67 63 61 57 52 48 44 41 34 25 21 16 31 23 13 10 6 23 21 23 30 32 24 16 15 7 14 24 35 31 11 2 9 21 5 3 7
49 58 65 74 77 75 67 67 64 64 67 66 62 61 53 48 45 42 36 21 18 7 14 29 43 37 18 25 16 28 36 22 17 16 16 9 26 26 5 15 15 10 18 29 12 6 8
55 54 54 64 80 82 79 81 70 66 66 67 65 61 55 48 41 42 41 36 24 11 11 17 42 43 39 40 20 40 48 23 12 17 30 23 4 13 16 13 19 22 28 23 17 1 10
48 60 62 66 70 80 88 79 80 67 63 64 64 61 53 41 33 42 46 35 22 5 11 12 16 20 34 34 13 32 52 18 10 27 19 16 7 12 16 16 24 28 24 20 16 7 17
47 48 58 55 56 70 73 84 86 74 60 57 62 61 47 52 26 40 41 31 31 11 16 8 10 13 27 23 29 19 43 18 16 16 14 11 17 20 22 19 21 11 10 18 12 18 11
41 46 51 57 43 62 86 91 83 87 75 64 56 57 46 54 47 37 28 41 41 9 26 10 10 13 18 7 7 14 18 9 10 9 4 9 1 9 8 6 14 24 13 10 6 3 15
38 38 43 52 53 46 58 89 94 95 85 78 76 81 66 68 69 46 41 56 12 27 8 15 12 16 15 12 9 12 21 21 18 15 25 7 19 8 9 11 5 11 20 7 8 10 13
42 37 36 41 48 50 50 52 95 88 81 79 75 78 78 83 72 58 63 16 28 32 41 9 12 16 21 19 8 12 20 24 27 8 8 18 14 30 25 27 18 33 23 10 13 11 3
44 34 38 40 43 51 63 63 48 87 84 79 72 78 91 90 83 74 62 31 44 36 34 26 14 13 20 13 12 16 25 20 28 34 22 17 12 5 7 6 20 15 21 3 7 3 5
48 46 40 41 46 45 56 60 66 59 61 88 90 93 99 92 90 94 31 57 34 17 24 25 41 27 35 28 26 30 31 17 15 40 14 12 10 4 5 7 1 10 21 9 7 10 13
36 47 50 45 42 49 45 55 61 62 60 102 96 48 82 94 95 59 28 53 48 25 24 33 40 27 21 24 33 23 26 11 25 24 40 12 9 7 10 23 35 12 13 7 5 8 8
36 38 44 48 45 40 44 50 55 67 60 70 98 24 59 104 43 30 39 57 56 60 33 27 12 39 29 29 30 33 38 25 44 38 31 20 5 12 23 2 5 22 23 25 14 13 9
40 35 39 40 40 41 41 39 58 56 65 47 77 67 66 116 35 38 55 55 56 41 59 35 27 20 21 29 20 36 27 22 41 37 35 24 10 11 7 7 5 17 18 30 23 4 21
42 39 42 34 38 38 43 38 44 52 61 53 20 8 35 95 105 56 51 62 57 77 39 57 32 36 20 26 23 16 26 14 44 38 37 48 18 31 37 16 21 24 29 32 36 20 25
42 40 48 35 32 36 40 28 25 51 54 51 18 5 12 12 37 57 55 38 58 49 67 46 25 56 50 37 39 48 25 11 11 19 21 26 31 36 44 24 19 19 39 43 50 54 31
44 42 40 50 23 31 31 37 28 22 37 43 12 2 9 3 15 52 54 58 67 60 29 55 52 47 39 57 61 45 45 34 25 17 15 10 28 31 31 27 25 19 35 50 53 48 46
36 43 39 39 41 20 29 28 28 23 15 5 27 30 9 3 3 3 37 57 62 47 55 75 65 49 48 70 66 55 39 44 26 34 36 25 22 15 31 18 10 19 46 41 35 35 39
44 36 42 36 40 37 23 31 24 23 24 26 17 19 13 6 10 11 5 4 8 4 30 14 41 47 61 38 38 6 14 21 16 3 15 32 38 16 14 11 21 14 1 37 42 33 32
41 53 39 41 36 47 25 30 21 19 21 16 20 9 8 5 9 9 15 9 4 8 6 5 4 12 41 32 8 8 3 5 2 7 4 2 26 10 11 20 7 3 7 17 26 29 19
49 42 52 41 42 38 48 28 25 18 17 15 19 13 10 2 9 9 6 6 7 7 6 4 8 50 18 5 6 14 12 10 12 7 5 5 10 17 8 13 21 4 9 11 10 11 18
55 49 43 49 42 39 36 34 34 20 17 20 19 20 10 6 9 15 7 9 12 6 6 8 10 1 3 4 5 6 8 2 16 23 14 9 4 25 12 11 9 7 12 19 14 5 14
45 49 50 41 44 43 38 36 37 35 25 24 21 25 21 9 10 20 12 13 15 12 7 13 11 3 3 8 6 6 6 9 5 3 9 17 18 9 7 9 18 17 12 17 7 15 31
47 49 49 47 48 42 41 39 39 46 44 36 29 28 24 10 5 19 25 18 11 24 20 26 3 6 11 6 3 6 5 4 8 9 2 7 6 8 12 4 4 37 6 15 29 34 34
Wind_Direction_850mb
255 255 251 245 239 243 244 243 240 239 238 242 246 251 258 259 260 263 267 270 274 281 286 291 297 303 307 283 247 224 208 187 177 172 177 183 186 147 184 156 160 209 170 200 201 209 228
256 255 255 251 245 239 243 244 244 242 241 241 245 248 251 255 257 258 263 269 274 278 282 287 290 294 290 259 249 233 224 213 209 205 209 212 202 169 122 167 228 139 217 253 251 235 212
256 257 254 254 251 247 239 243 244 244 243 242 245 247 248 250 252 255 258 264 268 272 275 281 285 288 280 262 249 230 226 218 214 212 215 215 198 168 146 147 152 18 289 292 232 214 217
263 259 257 255 255 249 249 241 242 243 242 243 243 246 249 248 248 251 257 262 266 268 273 277 281 282 260 257 243 233 226 217 210 210 209 199 177 159 124 133 79 237 252 253 126 165 159
258 261 258 258 255 255 249 249 243 240 242 241 242 245 246 246 247 248 253 261 264 266 271 274 274 254 254 245 234 228 213 213 203 193 185 178 166 126 138 192 214 213 259 229 285 192 144
254 260 260 256 256 255 255 252 248 242 238 241 240 242 245 244 245 247 250 256 261 268 267 268 249 246 237 221 216 210 201 189 172 169 144 157 132 181 179 198 236 206 222 231 241 143 223
261 254 259 258 256 256 256 258 253 245 240 236 240 238 239 242 242 245 248 253 266 262 233 214 219 202 180 201 194 192 187 177 161 163 181 151 206 215 216 218 259 210 235 259 213 123 238
258 259 257 259 257 256 256 258 258 248 242 237 233 238 234 236 239 240 239 217 219 224 290 244 239 231 223 192 182 190 180 174 173 188 138 161 230 234 145 195 218 228 251 259 273 218 235
260 255 259 261 258 253 250 251 253 252 241 238 234 232 233 230 231 233 233 227 229 249 267 253 232 231 220 212 213 193 183 183 182 169 194 211 161 171 172 171 202 227 233 243 261 201 218
267 261 258 262 263 259 248 249 246 248 240 236 232 231 227 221 219 226 233 221 207 193 264 234 211 218 202 194 213 196 185 177 182 208 179 235 164 155 184 210 205 241 223 232 232 244 262
274 266 255 264 266 256 250 243 246 239 241 235 231 227 220 211 210 212 229 200 183 156 270 131 151 176 166 177 142 179 180 194 182 169 181 200 178 189 214 224 186 264 145 203 213 234 265
289 273 263 255 264 258 249 249 249 234 235 231 231 230 216 210 208 219 206 171 155 193 239 165 132 160 152 157 123 116 169 158 141 130 276 273 71 194 205 96 193 136 101 82 84 201 252
296 294 279 263 256 260 249 251 256 233 230 228 228 233 224 211 206 201 176 153 178 224 131 179 174 173 166 151 144 165 172 180 173 183 223 197 220 175 160 116 96 182 165 183 217 209 251
273 286 295 286 262 249 246 248 245 233 235 231 229 219 212 208 208 190 176 186 218 224 208 109 120 139 182 154 185 157 159 192 218 200 146 198 235 191 187 214 181 190 196 206 213 204 222
262 271 282 291 286 256 243 243 242 243 234 228 220 216 212 206 202 194 181 200 221 209 189 149 133 166 196 205 172 167 197 210 197 193 205 195 247 195 196 148 167 180 212 169 110 81 263
263 266 270 282 297 278 250 240 240 241 251 223 216 215 212 206 203 194 202 214 223 193 159 177 205 189 186 185 176 193 181 192 201 194 200 199 235 218 143 140 140 207 145 172 214 218 231
275 271 267 275 286 298 255 246 237 233 245 233 220 209 208 209 205 201 208 224 217 210 171 181 212 200 207 181 196 195 200 167 201 192 194 155 237 140 147 208 187 173 190 205 216 222 239
271 277 277 267 281 284 257 246 245 231 230 224 210 216 206 201 196 207 211 214 218 212 220 228 222 210 192 181 192 208 203 205 189 151 177 196 161 195 207 120 303 234 215 184 200 191 237
287 274 267 272 276 272 284 250 240 238 229 248 219 212 203 190 201 204 222 222 222 211 213 219 213 202 195 193 213 205 203 204 170 169 169 171 198 228 221 214 182 218 204 216 235 57 210
279 277 255 265 263 277 271 273 236 234 240 241 224 213 202 193 204 206 206 215 217 216 220 212 229 229 209 211 224 206 209 188 193 199 195 167 175 208 225 217 161 205 205 202 202 220 218
276 283 251 266 258 265 266 283 262 232 239 240 241 248 191 205 202 206 208 209 216 212 216 201 218 217 214 229 225 233 199 155 196 223 188 188 226 217 235 243 203 208 196 195 208 221 214
262 272 268 252 280 251 261 273 279 273 211 227 184 236 258 205 225 208 203 211 212 212 177 212 222 208 212 217 212 220 221 214 210 176 191 220 228 217 241 229 216 228 211 202 211 219 233
265 256 267 274 256 267 252 259 273 286 268 203 193 198 240 246 194 271 216 221 216 209 217 218 217 222 215 224 229 246 227 222 209 186 188 185 203 183 232 197 162 250 214 198 206 214 213
258 267 256 267 275 244 255 253 246 272 261 236 202 182 180 227 207 221 223 340 164 159 234 223 221 216 222 219 208 179 82 76 161 104 207 194 205 203 227 132 218 260 145 206 209 212 217
272 251 266 256 261 263 257 242 234 239 254 254 218 223 188 228 199 179 205 187 151 329 75 141 143 189 163 135 110 125 39 98 56 37 70 136 185 182 183 210 325 343 203 165 179 228 199
270 277 253 260 253 259 254 241 224 211 214 243 256 239 227 218 217 132 143 180 186 140 130 59 149 155 138 112 151 175 182 148 189 162 8 130 187 205 151 209 220 213 175 165 144 243 196
256 265 271 249 249 250 253 257 228 230 209 202 216 223 214 236 213 161 171 170 149 133 113 132 144 140 99 127 151 167 174 142 168 172 160 147 168 211 183 221 271 204 162 159 161 230 155
258 255 261 265 246 243 242 230 230 226 220 204 201 195 206 212 222 203 175 158 143 154 157 143 110 152 153 189 170 159 150 190 117 121 170 171 168 184 157 210 248 146 108 176 155 126 158
262 254 253 260 242 240 243 234 226 224 228 209 199 190 186 191 249 223 211 182 168 169 131 163 20 156 164 138 142 118 131 168 140 178 215 206 192 176 206 197 48 172 82 173 147 165 182